軌道要素
Epoch 2018 Aug. 30.0 TT = JDT 2458360.5
T 2018 Sept. 14.25234 TT MPCW
q 2.0677913 (2000.0) P Q
n 0.07589185 Peri. 118.80549 +0.92629613 -0.27164352
a 5.5250892 Node 257.97762 +0.17794359 +0.92622952
e 0.6257452 Incl. 15.48457 +0.33213183 +0.26135929
P 12.99
From 713 observations 2005 July 5-2019 Feb. 8, mean residual 0".5.
|